Theta_e
349 348 349 350 353 353 349 348 344 339 341 346 344 341 340 339 339 340 345 349 350 346 353 346 348 346 348 341 339 337 338 341 340 339 342 346 348 348 350 352 351 347 353
346 347 346 350 352 354 353 341 339 339 350 348 348 349 351 351 346 345 347 349 350 348 348 348 349 348 347 344 348 344 342 345 344 344 354 351 347 347 348 352 351 341 349
348 348 345 350 352 353 350 341 345 349 351 348 348 350 350 349 348 351 350 350 349 351 344 344 347 348 347 347 344 347 343 345 349 351 338 351 348 346 347 350 352 346 346
348 347 345 350 350 349 343 346 348 349 352 347 348 348 348 348 348 349 347 347 346 343 339 338 338 338 340 342 342 340 342 347 349 349 340 336 348 349 347 349 349 345 347
350 348 346 348 350 347 345 348 348 348 348 348 348 348 349 349 345 343 341 339 338 337 334 333 335 336 335 335 338 340 342 343 344 348 345 335 337 345 351 346 343 345 347
350 346 348 348 347 346 353 351 352 350 351 350 350 348 344 340 335 334 334 334 334 335 336 336 340 344 348 346 340 335 336 339 343 348 345 342 344 345 344 343 344 346 351
349 347 349 348 345 348 348 346 347 345 342 341 341 339 335 335 336 335 336 337 337 339 340 342 344 349 352 351 347 340 338 334 336 343 347 344 346 348 341 341 350 350 346
349 344 347 348 346 352 348 339 337 338 338 338 340 337 336 335 337 337 339 341 342 343 345 346 348 351 351 350 347 346 344 340 341 341 346 348 348 349 344 339 349 349 345
349 346 348 347 349 353 354 352 350 349 345 343 343 338 338 340 339 340 343 345 347 347 347 348 349 351 350 350 347 346 344 343 341 349 352 349 344 349 343 339 339 342 343
353 352 344 340 343 349 351 349 346 346 344 341 339 335 335 340 345 347 349 350 351 351 350 349 349 349 348 348 348 347 346 348 347 349 353 352 350 348 345 342 341 339 339
351 349 347 338 341 339 338 341 342 341 339 336 334 334 338 345 351 352 352 352 355 352 351 351 350 348 347 346 347 347 346 346 348 350 354 352 350 349 347 344 344 344 342
348 348 347 342 339 343 345 336 336 334 334 333 334 342 343 347 352 354 356 355 352 353 351 352 351 349 349 349 348 351 350 348 348 354 355 351 350 349 347 345 343 344 345
346 347 346 346 343 345 347 348 338 338 338 339 348 352 352 356 354 355 355 354 355 356 354 353 353 351 348 348 345 353 354 353 352 355 355 353 351 347 346 345 344 344 344
345 345 345 346 346 346 346 349 348 346 348 349 352 353 353 356 355 356 354 354 354 355 353 350 347 345 350 345 354 354 356 355 355 354 354 353 349 345 344 345 344 343 344
347 347 347 346 347 347 349 349 346 348 348 352 351 348 345 352 352 354 356 355 356 356 356 356 353 353 354 352 354 356 357 357 355 354 355 349 344 342 345 346 346 347 345
347 348 349 348 348 349 348 348 347 347 348 349 349 351 350 354 356 355 353 352 355 355 356 357 356 356 357 354 354 356 357 349 354 352 346 344 340 341 343 343 344 345 345
347 347 350 349 347 348 348 349 348 348 347 346 349 351 351 353 355 353 354 354 357 354 355 357 357 357 345 353 356 355 356 354 350 346 350 346 341 342 342 343 344 344 345
347 347 351 350 349 348 350 350 350 348 347 349 347 347 353 353 352 356 357 358 356 355 355 358 356 356 351 349 351 350 348 350 353 354 352 346 343 345 344 345 344 344 343
348 348 351 350 351 351 349 350 351 347 348 349 349 349 354 353 352 356 354 356 356 355 354 356 351 353 354 354 356 353 349 351 349 351 353 351 345 347 347 347 346 346 344
348 348 349 352 353 353 353 351 352 349 349 347 348 350 353 354 356 356 356 357 358 357 357 355 352 350 351 355 354 352 337 341 350 343 349 350 354 352 353 350 348 347 347
347 348 349 350 355 354 355 354 351 351 348 350 349 349 353 356 357 356 355 357 356 355 353 354 344 350 354 355 349 346 344 344 349 345 335 342 352 355 354 353 351 350 349
348 347 347 348 349 354 353 352 348 351 350 350 349 349 354 357 356 359 354 354 355 355 348 347 351 353 357 355 352 347 348 345 342 342 341 341 351 353 354 353 353 353 352
348 347 346 346 348 351 350 349 348 348 351 351 350 350 354 354 354 355 353 357 356 354 354 338 347 349 356 355 354 351 349 347 338 339 339 340 340 343 352 354 354 354 354
346 348 346 346 347 347 349 352 351 351 353 352 352 351 351 352 350 349 353 357 356 356 356 348 350 338 356 357 355 354 354 345 338 341 338 340 345 345 351 356 356 355 356
347 351 348 347 347 348 347 348 350 352 353 350 351 350 349 348 351 351 351 353 362 358 356 355 354 354 356 356 357 354 352 339 344 346 345 346 342 348 347 357 356 356 356
349 350 350 350 349 350 349 347 354 354 350 354 352 349 350 349 348 352 352 356 360 359 356 356 351 342 350 351 349 352 356 354 351 347 350 348 349 347 354 355 354 355 355
Wind_Speed
25 24 22 20 17 17 17 17 18 18 16 14 13 14 14 15 15 15 14 12 11 10 8 6 6 6 6 6 5 5 5 5 5 6 7 7 8 9 12 12 8 10 11
32 26 24 20 20 18 17 17 16 16 15 14 12 13 13 13 13 12 12 11 9 8 7 6 6 5 5 6 5 7 7 6 6 7 7 7 6 8 8 8 8 8 11
34 29 26 21 21 18 17 16 15 15 14 13 13 14 13 13 12 12 11 11 10 8 6 5 4 4 4 5 4 6 6 8 7 6 4 7 8 5 6 8 11 8 11
34 32 28 22 20 18 18 17 15 15 13 13 14 14 14 12 12 11 10 9 7 6 5 4 3 2 2 3 3 4 5 6 8 4 6 3 8 5 6 8 9 9 11
33 31 29 25 21 19 18 16 15 14 13 13 13 12 12 11 9 8 7 6 5 5 4 3 3 3 3 3 4 4 5 5 7 2 5 11 7 7 8 9 8 10 12
31 29 28 25 22 20 18 17 15 14 13 13 12 11 10 8 7 6 6 5 5 5 6 6 6 6 6 7 7 8 7 8 7 6 3 7 4 9 10 10 10 11 13
33 29 26 23 23 22 19 17 15 13 13 12 11 10 9 7 6 6 6 6 7 7 7 8 8 8 8 8 9 9 9 9 9 10 13 15 20 13 12 11 14 13 13
37 31 26 24 23 19 18 17 15 14 13 12 11 10 9 7 6 7 6 6 6 7 8 8 9 9 9 10 10 10 10 10 11 12 13 23 22 19 13 16 18 15 14
32 34 29 26 22 18 16 15 14 13 13 12 11 9 8 7 7 6 6 7 8 9 9 9 10 11 11 10 10 12 12 12 13 13 11 14 17 20 16 17 16 15 15
34 32 31 27 23 21 18 16 14 14 13 12 11 10 9 8 7 7 7 8 9 9 11 10 11 10 10 12 12 11 14 14 12 14 16 13 22 21 17 16 17 17 16
32 32 29 29 25 22 19 17 15 14 13 12 11 11 11 11 10 9 8 9 9 11 12 9 9 8 9 9 11 14 14 17 15 17 14 17 16 21 17 18 18 17 16
33 33 31 27 25 22 19 19 17 15 16 14 12 11 10 11 11 10 10 9 8 8 7 10 12 12 10 14 17 17 19 17 18 16 16 14 13 19 18 20 19 18 17
39 36 33 28 25 25 26 21 18 19 18 18 13 11 10 11 12 12 14 14 12 7 13 8 11 12 10 15 14 18 20 18 18 15 18 17 17 17 16 17 17 16 16
32 35 39 32 28 29 30 28 20 21 22 21 18 15 13 12 12 13 7 8 11 9 9 12 6 8 13 11 18 15 17 12 15 18 20 18 18 14 13 13 13 14 14
25 33 37 37 32 30 26 25 19 24 27 23 19 15 14 12 11 9 8 8 10 10 11 13 12 9 7 13 17 21 19 15 11 16 20 19 15 11 10 10 11 10 12
31 25 30 37 32 25 24 26 19 12 14 17 18 15 11 12 10 9 9 11 13 13 11 13 11 8 10 11 17 24 13 5 7 18 15 16 12 8 8 8 9 9 9
36 30 26 33 32 28 23 16 19 16 10 12 16 14 17 16 14 10 9 13 12 12 13 13 11 8 8 7 12 13 19 8 5 22 20 17 14 10 8 8 9 9 8
38 34 31 34 31 29 24 21 18 19 16 13 14 15 22 18 13 11 11 12 13 14 14 10 10 13 15 13 8 16 16 9 7 13 21 18 15 13 11 10 10 9 8
38 35 34 33 31 28 27 25 19 19 21 18 18 21 23 20 12 14 9 13 14 14 9 6 7 12 11 11 5 10 10 14 6 4 2 12 17 14 12 11 10 9 8
38 36 34 32 33 29 24 24 20 21 21 19 19 17 17 23 14 13 12 11 15 12 8 9 6 11 8 5 1 9 10 4 8 4 6 6 15 20 15 14 13 11 9
32 37 34 30 29 32 30 27 23 24 22 20 18 16 12 21 18 12 9 13 11 13 9 9 7 6 9 8 12 12 5 2 7 8 21 22 12 18 21 19 16 14 13
36 39 35 29 28 35 32 29 25 23 22 20 20 20 17 20 16 14 10 10 10 14 12 7 7 6 7 2 4 6 2 3 8 19 15 22 24 16 17 26 18 14 16
37 41 38 34 28 30 29 26 20 24 24 25 27 25 23 20 16 15 15 13 15 10 10 12 11 7 5 3 5 6 2 4 2 6 21 15 23 25 23 27 21 16 16
36 42 41 38 33 30 30 26 25 25 23 23 21 21 15 23 20 17 17 16 18 12 12 16 15 10 5 9 7 6 8 8 3 2 10 18 17 25 15 27 27 21 23
37 39 43 41 38 35 32 29 30 30 24 23 20 18 16 21 21 21 17 22 18 15 13 15 12 9 11 10 10 5 8 9 9 4 3 4 14 21 19 22 29 28 24
35 37 40 41 41 38 35 36 31 30 30 23 22 22 21 23 19 24 21 19 21 18 13 14 14 13 14 14 15 12 7 4 2 6 2 3 4 10 17 4 8 3 2
Wind_Direction
154 151 146 140 134 131 125 122 119 115 112 106 103 103 105 113 116 115 113 110 111 117 119 121 119 105 100 93 96 95 105 114 116 108 95 97 104 117 120 115 110 130 130
152 153 148 142 138 134 132 128 125 119 114 112 111 115 120 120 124 124 127 122 122 132 135 133 128 125 109 104 98 90 111 116 96 92 98 98 109 127 139 127 144 140 141
148 153 148 146 145 142 138 134 130 126 122 125 121 121 126 128 132 136 138 137 140 141 143 144 139 134 122 114 111 107 118 117 111 127 137 152 134 153 156 133 149 142 150
152 152 151 151 148 145 141 138 138 132 131 132 132 135 134 135 137 138 139 143 149 152 153 155 159 171 164 154 153 139 143 138 131 160 141 205 143 168 183 161 158 164 162
149 156 153 154 152 148 143 141 137 136 138 138 140 143 144 149 150 149 151 157 169 183 200 204 217 241 250 231 208 202 195 169 149 204 309 167 167 194 198 184 169 176 172
151 158 155 155 154 152 152 150 147 145 148 150 153 155 157 161 168 171 180 190 202 218 226 225 225 228 235 242 235 223 220 208 175 195 97 208 233 199 205 192 181 185 182
155 158 157 160 158 158 159 164 160 160 160 162 164 168 173 183 193 202 206 209 216 222 229 230 226 227 229 235 243 240 225 224 204 184 208 226 225 214 204 204 190 195 192
161 162 160 163 162 164 163 164 165 165 169 174 179 185 192 195 206 216 215 218 225 233 237 243 245 240 234 233 236 244 242 231 226 202 219 224 215 210 211 205 198 201 201
157 158 163 165 165 168 171 173 173 176 183 187 193 201 205 205 210 215 220 222 229 238 240 244 252 253 249 240 238 244 240 236 230 225 235 213 207 205 206 203 205 204 205
154 158 162 167 170 173 178 184 185 187 192 199 205 210 205 199 202 209 220 232 237 248 251 250 257 267 264 261 252 243 247 245 240 217 218 240 216 207 205 209 205 207 206
154 164 165 169 176 178 182 189 191 197 201 206 212 209 207 208 212 222 239 249 262 265 258 254 256 251 248 249 253 249 243 241 232 230 237 228 206 204 210 211 211 210 210
160 168 174 175 178 182 190 195 193 201 205 208 203 197 210 233 244 239 247 259 263 264 266 251 247 245 245 246 246 244 239 242 240 238 243 222 220 206 212 215 214 215 215
169 171 180 180 179 184 194 201 202 203 208 208 202 205 219 243 237 241 239 251 245 269 254 252 231 234 235 240 252 238 240 242 244 248 238 229 216 213 216 218 220 224 225
171 175 183 183 182 189 193 211 211 212 215 214 206 210 219 229 237 243 268 236 248 259 253 250 270 243 250 253 242 248 241 245 245 256 230 221 211 210 215 217 220 225 221
187 172 182 184 183 186 197 199 214 225 227 221 206 212 218 217 233 244 247 248 262 262 269 282 268 247 247 254 263 245 249 257 251 234 213 205 197 195 208 208 212 221 220
185 191 181 180 179 179 194 200 214 227 192 196 209 213 206 215 242 228 253 259 270 269 270 275 242 239 212 245 255 244 245 210 214 182 184 191 187 183 187 188 192 202 206
183 188 188 179 180 188 190 200 207 217 207 218 207 220 225 211 216 231 269 262 281 269 292 251 226 251 250 262 244 263 222 166 159 235 239 201 187 173 180 186 188 195 200
180 185 181 181 186 197 200 210 212 216 209 235 240 234 214 210 214 227 250 269 272 274 280 270 253 243 267 296 303 45 43 140 100 249 240 209 191 179 182 191 193 198 205
178 183 176 186 192 196 207 211 219 223 225 239 246 237 218 211 209 221 229 260 269 274 273 267 233 233 244 339 41 22 20 48 98 351 169 251 225 194 192 196 192 193 210
181 185 188 185 190 193 195 199 211 225 234 245 253 260 257 210 208 230 235 263 281 256 253 261 257 259 284 26 232 132 225 53 354 44 191 355 241 228 203 203 198 195 206
184 185 186 188 189 190 190 192 202 222 232 247 247 247 250 201 210 203 244 242 233 241 269 278 262 281 294 160 118 73 163 190 123 244 236 266 239 218 229 205 205 203 208
179 183 184 184 186 192 193 196 202 214 230 231 237 248 223 203 205 210 252 246 226 266 234 243 247 257 278 4 126 120 169 148 183 185 214 230 210 218 239 234 209 215 213
174 182 187 189 190 191 195 197 208 214 230 235 239 242 219 210 209 225 243 251 265 266 256 237 250 233 290 326 180 148 113 219 183 227 211 215 222 236 250 246 214 223 227
178 182 186 191 194 194 194 195 208 217 226 234 247 238 234 220 231 240 233 239 250 244 246 227 253 230 258 257 257 196 191 184 156 323 257 239 226 251 262 233 218 228 219
175 177 185 190 195 200 201 205 214 224 233 240 246 242 237 233 231 230 238 231 234 239 240 226 260 242 237 255 260 210 188 179 193 122 238 284 244 240 242 229 224 220 218
174 176 181 186 194 201 207 210 213 223 225 229 238 244 247 240 226 231 234 236 240 232 228 226 235 246 253 259 266 272 263 272 50 254 218 241 256 325 297 110 164 123 250